Myrtle Beach, SC

7:53 PM EST on February 22, 2017 (GMT -0500)
Myrtle Beach International

Weather History for KMYR - July, 2013

Change the Weather History Date:

Saturday, July 13, 2013

  Actual Average Record
Temperature  
Mean Temperature 78 °F -  
Max Temperature 84 °F 84 °F 98 °F (1992)
Min Temperature 71 °F 69 °F 63 °F (1953)
Cooling Degree Days 12    
Growing Degree Days 28 (Base 50)    
Moisture  
Dew Point 73 °F    
Average Humidity 87    
Maximum Humidity 100    
Minimum Humidity 74    
Precipitation  
Precipitation 0.00 in - - ()
Sea Level Pressure  
Sea Level Pressure 30.02 in    
Wind  
Wind Speed 8 mph (ENE)    
Max Wind Speed 18 mph    
Max Gust Speed 25 mph    
Visibility 9 miles    
Events Rain    
Averages and records for this station are not official NWS values.
T = Trace of Precipitation, MM = Missing Value Source: NWS Daily Summary

Daily Weather History Graph

Daily Weather History Graph

Search for Another Location

Airport or City:

Trip Planner

Search our weather history database for the weather conditions in past years. The results will help you decide how hot, cold, wet, or windy it might be!

Date:

Astronomy

Jul. 13, 2013 Rise Set
Actual Time 6:15 AM EDT 8:27 PM EDT
Civil Twilight 5:46 AM EDT 8:55 PM EDT
Nautical Twilight 5:12 AM EDT 9:30 PM EDT
Astronomical Twilight 4:34 AM EDT 10:08 PM EDT
Moon 11:12 AM EDT (7/13) 11:26 PM EDT (7/13)
Length of Visible Light 15h 09m
Length of Day
14h 12m
Waxing Crescent, 25% of the Moon is Illuminated
Jul 13
Waxing Crescent
Jul 15
First Quarter
Jul 22
Full
Jul 29
Last Quarter
Aug 6
New

Hourly Weather History & Observations

Time (EDT) Temp. Heat Index Dew Point Humidity Pressure Visibility Wind Dir Wind Speed Gust Speed Precip Events Conditions
12:15 AM 75.2 °F - 71.6 °F 89% 29.97 in 10.0 mi East 3.5 mph - N/A   Mostly Cloudy
12:35 AM 75.2 °F - 71.6 °F 89% 29.97 in 10.0 mi East 4.6 mph - N/A   Scattered Clouds
12:55 AM 75.2 °F - 71.6 °F 89% 29.97 in 10.0 mi ESE 6.9 mph - N/A   Clear
1:15 AM 75.2 °F - 71.6 °F 89% 29.97 in 10.0 mi ESE 5.8 mph - N/A   Clear
1:35 AM 75.2 °F - 69.8 °F 83% 29.97 in 10.0 mi ESE 5.8 mph - N/A   Scattered Clouds
1:55 AM 75.2 °F - 71.6 °F 89% 29.98 in 10.0 mi ESE 6.9 mph - N/A   Overcast
2:15 AM 75.2 °F - 71.6 °F 89% 29.98 in 10.0 mi ESE 5.8 mph - N/A   Overcast
2:35 AM 77.0 °F - 73.4 °F 89% 29.98 in 10.0 mi East 5.8 mph - N/A   Overcast
2:55 AM 77.0 °F - 73.4 °F 89% 29.99 in 10.0 mi NNW 5.8 mph - N/A   Overcast
3:15 AM 75.2 °F - 71.6 °F 89% 29.98 in 10.0 mi NW 6.9 mph - N/A   Mostly Cloudy
3:35 AM 75.2 °F - 71.6 °F 89% 29.98 in 10.0 mi North 4.6 mph - N/A   Mostly Cloudy
3:55 AM 75.2 °F - 71.6 °F 89% 29.98 in 10.0 mi North 5.8 mph - N/A   Overcast
4:15 AM 73.4 °F - 71.6 °F 94% 29.98 in 10.0 mi NNW 4.6 mph - N/A   Mostly Cloudy
4:35 AM 73.4 °F - 71.6 °F 94% 29.98 in 10.0 mi North 6.9 mph - N/A   Clear
4:55 AM 73.4 °F - 71.6 °F 94% 29.98 in 10.0 mi North 9.2 mph - N/A   Scattered Clouds
5:15 AM 73.4 °F - 71.6 °F 94% 29.98 in 10.0 mi North 8.1 mph - N/A   Mostly Cloudy
5:35 AM 73.4 °F - 71.6 °F 94% 29.99 in 10.0 mi NNE 8.1 mph - N/A   Mostly Cloudy
5:55 AM 73.4 °F - 71.6 °F 94% 29.99 in 10.0 mi North 8.1 mph - N/A   Mostly Cloudy
6:50 AM 71.6 °F - 69.8 °F 94% 30.00 in 7.0 mi North 6.9 mph - N/A   Mostly Cloudy
7:45 AM 73.4 °F - 69.8 °F 88% 30.01 in 6.0 mi North 6.9 mph - N/A   Mostly Cloudy
8:45 AM 73.4 °F - 73.4 °F 100% 30.04 in 6.0 mi NNE 6.9 mph - N/A   Mostly Cloudy
9:50 AM 77.0 °F - 75.2 °F 94% 30.05 in 10.0 mi NE 11.5 mph - N/A   Mostly Cloudy
10:45 AM 78.8 °F - 73.4 °F 83% 30.04 in 10.0 mi NNE 10.4 mph - N/A   Mostly Cloudy
11:20 AM 77.0 °F - 73.4 °F 89% 30.05 in 2.0 mi ENE 13.8 mph - N/A Rain Rain
11:35 AM 75.2 °F - 73.4 °F 94% 30.05 in 5.0 mi NNE 9.2 mph - N/A Rain Light Rain
11:50 AM 75.2 °F - 73.4 °F 94% 30.05 in 7.0 mi NNE 11.5 mph - N/A   Mostly Cloudy
12:45 PM 80.6 °F 85.4 °F 73.4 °F 79% 30.04 in 10.0 mi NNE 11.5 mph - N/A   Mostly Cloudy
1:45 PM 84.2 °F 92.3 °F 75.2 °F 74% 30.02 in 10.0 mi NNE 9.2 mph - N/A   Mostly Cloudy
2:45 PM 82.4 °F 89.5 °F 75.2 °F 79% 30.04 in 10.0 mi SE 11.5 mph - N/A   Overcast
3:45 PM 82.4 °F 89.5 °F 75.2 °F 79% 30.02 in 10.0 mi ESE 11.5 mph - N/A   Mostly Cloudy
4:45 PM 82.4 °F 89.5 °F 75.2 °F 79% 30.02 in 10.0 mi SE 11.5 mph - N/A   Mostly Cloudy
5:45 PM 84.2 °F 92.3 °F 75.2 °F 74% 30.02 in 10.0 mi SSE 15.0 mph - N/A   Mostly Cloudy
6:27 PM 82.4 °F 89.5 °F 75.2 °F 79% 30.04 in 7.0 mi SSE 17.3 mph 23.0 mph N/A Rain Light Rain
6:45 PM 82.4 °F 89.5 °F 75.2 °F 79% 30.05 in 10.0 mi SSE 18.4 mph 25.3 mph N/A   Mostly Cloudy
7:45 PM 78.8 °F - 73.4 °F 83% 30.06 in 10.0 mi SSE 16.1 mph - N/A   Mostly Cloudy
8:10 PM 78.8 °F - 73.4 °F 83% 30.07 in 10.0 mi SSE 16.1 mph - N/A   Mostly Cloudy
9:55 PM 78.8 °F - 73.4 °F 83% 30.11 in 10.0 mi SSE 15.0 mph - N/A   Scattered Clouds
10:55 PM 77.0 °F - 71.6 °F 83% 30.11 in 10.0 mi SSE 10.4 mph - N/A   Scattered Clouds
11:15 PM 77.0 °F - 73.4 °F 89% 30.12 in 10.0 mi SSE 13.8 mph - N/A   Scattered Clouds
11:35 PM 77.0 °F - 71.6 °F 83% 30.13 in 10.0 mi South 11.5 mph - N/A   Mostly Cloudy
11:55 PM 77.0 °F - 71.6 °F 83% 30.13 in 10.0 mi South 12.7 mph - N/A   Mostly Cloudy